Appleton, MN

3:47 AM CST on November 23, 2017 (GMT -0600)
Appleton Municipal

Weather History for KAQP - October, 2013

Change the Weather History Date:

Wednesday, October 30, 2013

  Actual Average Record
Temperature  
Mean Temperature 38 °F -  
Max Temperature 42 °F 47 °F 69 °F (2008)
Min Temperature 35 °F 29 °F 15 °F (1996)
Degree Days  
Heating Degree Days 26    
Moisture  
Dew Point 37 °F    
Average Humidity 93    
Maximum Humidity 100    
Minimum Humidity 87    
Precipitation  
Precipitation 0.07 in - - ()
Sea Level Pressure  
Sea Level Pressure 29.89 in    
Wind  
Wind Speed 3 mph (NNE)    
Max Wind Speed 8 mph    
Max Gust Speed -    
Visibility 3 miles    
Events Rain , Snow    
Averages and records for this station are not official NWS values.
T = Trace of Precipitation, MM = Missing Value Source: NWS Daily Summary

Daily Weather History Graph

Daily Weather History Graph

Search for Another Location

Airport or City:

Trip Planner

Search our weather history database for the weather conditions in past years. The results will help you decide how hot, cold, wet, or windy it might be!

Date:

Astronomy

Oct. 30, 2013 Rise Set
Actual Time 8:00 AM CDT 6:14 PM CDT
Civil Twilight 7:29 AM CDT 6:44 PM CDT
Nautical Twilight 6:55 AM CDT 7:19 PM CDT
Astronomical Twilight 6:20 AM CDT 7:53 PM CDT
Moon 3:39 AM CDT (10/30) 4:09 PM CDT (10/30)
Length of Visible Light 11h 14m
Length of Day
10h 13m
Waning Crescent, 17% of the Moon is Illuminated
Oct 30
Waning Crescent
Nov 3
New
Nov 9
First Quarter
Nov 17
Full
Nov 25
Last Quarter

Hourly Weather History & Observations

Time (CDT) Temp. Windchill Dew Point Humidity Pressure Visibility Wind Dir Wind Speed Gust Speed Precip Events Conditions
12:13 AM 35.6 °F 32.8 °F 33.8 °F 93% 30.08 in 4.0 mi NE 3.5 mph - N/A   Overcast
12:33 AM 35.6 °F 31.7 °F 33.8 °F 93% 30.07 in 2.5 mi ENE 4.6 mph - N/A   Overcast
12:53 AM 35.6 °F 31.7 °F 33.8 °F 93% 30.07 in 2.5 mi East 4.6 mph - N/A   Overcast
1:13 AM 35.6 °F 30.7 °F 33.8 °F 93% 30.06 in 3.0 mi East 5.8 mph - N/A   Overcast
1:33 AM 35.6 °F 30.7 °F 35.6 °F 100% 30.06 in 4.0 mi NE 5.8 mph - N/A   Overcast
1:53 AM 35.6 °F 30.7 °F 33.8 °F 93% 30.05 in 2.5 mi ENE 5.8 mph - N/A   Overcast
2:13 AM 35.6 °F 31.7 °F 35.6 °F 100% 30.05 in 1.2 mi NE 4.6 mph - 0.03 in Snow Light Snow
2:33 AM 35.6 °F 31.7 °F 35.6 °F 100% 30.05 in 1.5 mi NE 4.6 mph - 0.04 in Rain Light Rain
2:53 AM 35.6 °F 32.8 °F 35.6 °F 100% 30.03 in 1.2 mi East 3.5 mph - 0.04 in   Overcast
3:13 AM 35.6 °F 31.7 °F 35.6 °F 100% 30.03 in 1.5 mi ENE 4.6 mph - N/A   Drizzle
3:33 AM 35.6 °F - 35.6 °F 100% 30.02 in 1.2 mi Calm Calm - N/A   Overcast
3:53 AM 37.4 °F 33.8 °F 35.6 °F 93% 30.02 in 1.8 mi NE 4.6 mph - N/A   Overcast
4:13 AM 37.4 °F 34.9 °F 35.6 °F 93% 30.02 in 1.2 mi NNE 3.5 mph - N/A Rain Light Rain
4:33 AM 37.4 °F - 35.6 °F 93% 30.01 in 1.2 mi Calm Calm - 0.01 in Rain Light Rain
4:53 AM 37.4 °F - 35.6 °F 93% 30.02 in 1.5 mi Calm Calm - 0.01 in   Drizzle
5:14 AM 37.4 °F - 35.6 °F 93% 30.01 in 1.5 mi Calm Calm - 0.02 in Rain Rain
5:33 AM 37.4 °F 34.9 °F 35.6 °F 93% 30.00 in 1.8 mi NE 3.5 mph - 0.02 in   Light Drizzle
5:53 AM 37.4 °F - 35.6 °F 93% 29.99 in 1.2 mi Calm Calm - 0.02 in Snow Light Snow
6:13 AM 37.4 °F 34.9 °F 35.6 °F 93% 29.99 in 1.5 mi NE 3.5 mph - N/A   Overcast
6:34 AM 37.4 °F 33.8 °F 35.6 °F 93% 29.98 in 1.5 mi ENE 4.6 mph - N/A   Overcast
6:53 AM 37.4 °F 34.9 °F 35.6 °F 93% 29.98 in 1.8 mi ENE 3.5 mph - N/A   Overcast
7:13 AM 37.4 °F - 35.6 °F 93% 29.97 in 1.8 mi Calm Calm - N/A   Overcast
7:33 AM 37.4 °F 34.9 °F 35.6 °F 93% 29.95 in 2.0 mi NE 3.5 mph - N/A   Overcast
7:54 AM 37.4 °F - 35.6 °F 93% 29.94 in 2.0 mi Calm Calm - N/A   Overcast
8:14 AM 37.4 °F - 35.6 °F 93% 29.95 in 2.5 mi Calm Calm - N/A   Overcast
8:33 AM 37.4 °F - 35.6 °F 93% 29.95 in 2.5 mi Calm Calm - N/A   Overcast
8:53 AM 37.4 °F - 37.4 °F 100% 29.97 in 2.5 mi Calm Calm - N/A   Overcast
9:13 AM 37.4 °F 34.9 °F 37.4 °F 100% 29.97 in 3.0 mi East 3.5 mph - N/A   Overcast
9:33 AM 37.4 °F - 37.4 °F 100% 29.96 in 2.0 mi Calm Calm - N/A   Overcast
9:53 AM 37.4 °F 34.9 °F 37.4 °F 100% 29.96 in 1.5 mi East 3.5 mph - N/A   Overcast
10:14 AM 37.4 °F 34.9 °F 37.4 °F 100% 29.95 in 1.2 mi ENE 3.5 mph - N/A   Overcast
10:33 AM 39.2 °F 35.0 °F 37.4 °F 93% 29.92 in 1.2 mi NE 5.8 mph - N/A   Overcast
10:48 AM 39.2 °F 35.0 °F 37.4 °F 93% 29.91 in 1.5 mi NE 5.8 mph - N/A   Overcast
11:13 AM 39.2 °F 34.2 °F 37.4 °F 93% 29.89 in 2.5 mi NE 6.9 mph - N/A   Overcast
11:33 AM 39.2 °F 35.9 °F 37.4 °F 93% 29.89 in 4.0 mi NNE 4.6 mph - N/A   Overcast
11:53 AM 39.2 °F 35.9 °F 37.4 °F 93% 29.88 in 5.0 mi NE 4.6 mph - N/A   Overcast
12:13 PM 39.2 °F 35.0 °F 37.4 °F 93% 29.88 in 5.0 mi NE 5.8 mph - N/A   Overcast
12:33 PM 39.2 °F - 39.2 °F 100% 29.88 in 5.0 mi Calm Calm - N/A   Overcast
12:53 PM 39.2 °F - 37.4 °F 93% 29.88 in 5.0 mi Calm Calm - N/A   Overcast
1:13 PM 41.0 °F - 39.2 °F 93% 29.88 in 4.0 mi Calm Calm - N/A   Overcast
1:33 PM 39.2 °F - 39.2 °F 100% 29.88 in 3.0 mi Calm Calm - N/A   Overcast
1:54 PM 41.0 °F - 39.2 °F 93% 29.86 in 1.8 mi Calm Calm - N/A   Overcast
2:13 PM 41.0 °F - 39.2 °F 93% 29.85 in 1.8 mi Calm Calm - N/A   Light Drizzle
2:33 PM 41.0 °F - 39.2 °F 93% 29.82 in 2.5 mi Calm Calm - N/A   Overcast
2:53 PM 42.8 °F - 39.2 °F 87% 29.81 in 3.0 mi Calm Calm - N/A   Overcast
3:13 PM 42.8 °F 40.1 °F 39.2 °F 87% 29.80 in 5.0 mi NNE 4.6 mph - N/A   Overcast
3:34 PM 42.8 °F 41.1 °F 39.2 °F 87% 29.79 in 5.0 mi NNE 3.5 mph - N/A   Overcast
3:53 PM 42.8 °F - 39.2 °F 87% 29.79 in 5.0 mi Calm Calm - N/A   Overcast
4:13 PM 42.8 °F - 39.2 °F 87% 29.78 in 5.0 mi Calm Calm - N/A   Overcast
4:33 PM 42.8 °F - 39.2 °F 87% 29.77 in 3.0 mi Calm Calm - N/A   Overcast
4:53 PM 42.8 °F 41.1 °F 39.2 °F 87% 29.77 in 3.0 mi NNW 3.5 mph - N/A   Overcast
5:13 PM 42.8 °F - 39.2 °F 87% 29.77 in 4.0 mi Calm Calm - N/A   Overcast
5:34 PM 42.8 °F - 39.2 °F 87% 29.77 in 4.0 mi Calm Calm - N/A   Overcast
5:53 PM 42.8 °F - 39.2 °F 87% 29.77 in 5.0 mi Calm Calm - N/A   Overcast
6:13 PM 42.8 °F - 39.2 °F 87% 29.76 in 7.0 mi Calm Calm - N/A   Overcast
6:33 PM 42.8 °F - 39.2 °F 87% 29.75 in 4.0 mi Calm Calm - N/A   Overcast
6:53 PM 42.8 °F 40.1 °F 39.2 °F 87% 29.77 in 3.0 mi WSW 4.6 mph - N/A   Overcast
7:13 PM 42.8 °F 40.1 °F 39.2 °F 87% 29.77 in 2.0 mi WSW 4.6 mph - N/A   Drizzle
7:34 PM 41.0 °F 37.1 °F 39.2 °F 93% 29.77 in 2.5 mi West 5.8 mph - N/A   Light Drizzle
7:53 PM 41.0 °F 37.1 °F 39.2 °F 93% 29.76 in 2.5 mi West 5.8 mph - N/A   Drizzle
8:13 PM 39.2 °F 35.0 °F 39.2 °F 100% 29.76 in 2.5 mi West 5.8 mph - N/A   Overcast
8:34 PM 39.2 °F 35.9 °F 39.2 °F 100% 29.75 in 3.0 mi West 4.6 mph - N/A   Overcast
8:54 PM 39.2 °F 37.0 °F 39.2 °F 100% 29.74 in 1.8 mi West 3.5 mph - N/A   Overcast
9:13 PM 39.2 °F 35.0 °F 39.2 °F 100% 29.74 in 2.0 mi WNW 5.8 mph - N/A   Overcast
9:34 PM 39.2 °F 33.6 °F 37.4 °F 93% 29.74 in 5.0 mi West 8.1 mph - N/A   Overcast
9:53 PM 39.2 °F 34.2 °F 37.4 °F 93% 29.73 in 4.0 mi West 6.9 mph - N/A   Overcast
10:13 PM 39.2 °F 33.6 °F 37.4 °F 93% 29.73 in 4.0 mi West 8.1 mph - N/A   Overcast
10:33 PM 39.2 °F 35.0 °F 37.4 °F 93% 29.73 in 5.0 mi WNW 5.8 mph - N/A   Overcast
10:53 PM 39.2 °F 34.2 °F 37.4 °F 93% 29.73 in 7.0 mi West 6.9 mph - N/A   Overcast
11:13 PM 39.2 °F 35.9 °F 37.4 °F 93% 29.73 in 7.0 mi West 4.6 mph - N/A   Overcast
11:34 PM 39.2 °F 35.9 °F 37.4 °F 93% 29.72 in 5.0 mi WNW 4.6 mph - N/A   Overcast
11:53 PM 39.2 °F 33.6 °F 37.4 °F 93% 29.71 in 7.0 mi West 8.1 mph - N/A   Overcast